#timestamp,LO_Frequency,Hit,StdDev 
1585080015.3,286046996.9,N
1585080035.1,286046995.0,Y
1585080055.9,286046998.0,P
1585080075.7,286046998.2,N
1585080095.5,286046999.9,N
1585080115.4,286047000.3,N
1585080135.2,286047002.0,N
1585080155.0,286047001.9,N
1585080155.9,286047001.9,N
1585080175.8,286047003.0,N
1585080195.6,286047003.8,N
1585080215.5,286047000.1,N
1585080235.3,286047000.6,N
1585080255.1,286047001.1,N
1585080275.9,286047002.1,N
1585080295.7,286047002.5,N
1585080315.6,286046998.3,N
1585080335.4,286046998.2,N
1585080355.2,286046998.7,N
1585080375.1,286046996.6,N
1585080376.0,286046996.6,N
1585080395.8,286046997.2,N
1585080415.6,286046997.2,N
1585080435.5,286046999.4,N
1585080455.3,286046996.6,N
1585080475.2,286046999.0,N
1585080495.9,286046997.0,N
1585080515.7,286046995.0,N
1585080535.6,286046995.2,N
1585080555.4,286046996.1,N
1585080575.3,286046994.0,N
1585080595.1,286046994.3,N
1585080596.0,286046994.3,N
1585080615.8,286046993.4,N
1585080635.7,286046996.2,N
1585080655.5,286046995.8,N
1585080675.3,286046995.8,N
1585080695.2,286046997.1,N
1585080715.0,286046997.8,N
1585080715.9,286046997.8,N
1585080735.8,286046994.9,N
1585080755.6,286046995.8,N
1585080775.4,286046994.1,N
1585080795.3,286046994.5,N
1585080815.1,286046992.1,Y
1585080835.9,286046995.3,P
1585080855.7,286046995.6,P
1585080875.5,286046995.6,P
1585080895.4,286046997.6,Y
1585080915.2,286046998.7,P
1585080935.1,286047000.3,N
1585080936.0,286047000.3,N
1585080955.8,286047000.3,N
1585080975.6,286047000.4,N
1585080995.5,286046998.8,N
1585081015.3,286046999.2,N
1585081035.2,286047000.3,N
1585081055.9,286047000.7,N
1585081075.7,286046999.1,N
1585081095.6,286046999.3,N
1585081115.4,286046998.3,N
1585081135.2,286046999.9,N
1585081155.1,286046999.8,N
1585081156.0,286046999.8,N
1585081175.8,286047000.4,N
1585081195.7,286046998.9,N
1585081215.5,286046998.6,N
1585081235.3,286046998.5,N
1585081255.2,286046998.9,N
1585081275.0,286047000.2,N
1585081275.9,286047000.2,N
1585081295.8,286047000.3,N
1585081315.6,286047000.2,N
1585081335.4,286047000.6,N
1585081355.3,286047000.4,N
1585081375.1,286047001.1,N
1585081395.8,286046999.3,N
1585081415.7,286046998.3,N
1585081435.5,286047001.2,N
1585081455.4,286046998.3,N
1585081475.2,286047002.3,N
1585081495.0,286047004.4,Y
1585081495.9,286047004.4,P
1585081515.8,286047000.6,N
1585081535.6,286047000.4,N
1585081555.5,286046999.7,N
1585081605.3,286047003.8,E
1585081615.2,286047000.6,N
1585081635.1,286046997.0,P
1585081636.0,286046997.0,N
1585081655.8,286046995.0,N
1585081675.7,286046996.5,N
1585081695.5,286046996.6,N
1585081715.3,286046996.7,N
1585081735.2,286046997.2,N
1585081755.0,286046995.3,Y
1585081755.9,286046995.3,P
1585081775.8,286047001.0,N
1585081795.6,286046998.6,N
1585081815.4,286046998.5,N
1585081835.3,286047000.4,N
1585081855.1,286047001.6,N
1585081875.8,286047003.8,N
1585081895.7,286047006.0,N
1585081915.5,286047005.8,N
1585081935.4,286047004.1,N
1585081955.2,286047001.9,N
1585081975.0,286047001.5,N
1585081975.9,286047001.5,N
1585081995.8,286047003.1,N
1585082015.6,286047003.9,N
1585082035.5,286047001.3,N
1585082055.3,286047003.9,N
1585082075.1,286047004.7,N
1585082095.9,286047002.1,N
1585082115.7,286047000.3,N
1585082135.5,286047000.4,N
1585082155.4,286047002.5,N
1585082175.2,286046999.8,N
1585082195.1,286047002.3,N
1585082196.0,286047002.3,N
1585082215.8,286047001.8,N
1585082235.6,286047003.9,N
1585082255.5,286047003.7,N
1585082275.3,286047005.4,N
1585082295.1,286047006.7,N
1585082315.9,286047006.7,N
1585082335.7,286047006.7,Y
1585082355.6,286047004.9,P
1585082375.4,286047005.8,P
1585082395.2,286047003.4,N
1585082415.1,286047003.7,N
1585082416.0,286047003.7,Y
1585082435.8,286047000.9,P
1585082455.7,286046996.6,N
1585082475.5,286047001.2,N
1585082495.3,286047000.6,N
1585082515.2,286046999.0,N
1585082535.0,286046999.6,N
1585082535.9,286046999.6,N
1585082555.8,286046997.3,N
1585082575.6,286046999.1,N
1585082595.4,286046997.2,N
1585082615.3,286046995.1,N
1585082635.1,286046994.0,N
1585082655.9,286046995.3,N
1585082675.7,286046999.1,N
1585082695.5,286046997.1,N
1585082715.4,286046995.0,N
1585082735.2,286046999.0,N
1585082755.0,286046997.0,N
1585082755.9,286046997.0,N
1585082775.8,286046996.2,N
1585082795.6,286046998.0,N
1585082815.5,286046997.7,N
1585082835.3,286046995.6,N
1585082855.1,286046999.4,N
1585082875.9,286046999.2,N
1585082895.7,286046998.9,N
1585082915.6,286046996.9,N
1585082935.4,286046997.4,N
1585082955.2,286046997.1,N
1585082975.1,286047000.7,N
1585082976.0,286047000.7,N
1585082995.8,286046999.0,N
1585083015.7,286047001.1,N
1585083035.5,286046999.8,N
1585083055.3,286047001.1,N
1585083075.2,286047001.2,N
1585083095.0,286046998.6,N
1585083095.9,286046998.6,N
1585083115.7,286046998.3,N
1585083135.6,286046999.5,N
1585083155.4,286046996.5,N
1585083175.3,286046997.4,N
1585083195.1,286046997.3,N
1585083196.0,286046997.3,N
1585083215.8,286046995.5,N
1585083235.7,286046995.5,N
1585083255.5,286046998.7,N
1585083275.4,286046998.1,N
1585083295.2,286047000.9,N
1585083315.0,286047001.3,N
1585083315.9,286047001.3,N
1585083335.8,286047001.7,N
1585083355.6,286047000.3,N
1585083375.4,286047000.5,N
1585083395.3,286046998.8,N
1585083415.1,286046998.4,N
1585083435.9,286046995.3,N
1585083455.7,286046997.5,N
1585083475.5,286046996.3,N
1585083495.4,286046994.9,N
1585083515.2,286046996.9,N
1585083535.0,286047001.2,N
1585083536.0,286047001.2,N
1585083555.8,286047000.3,N
1585083575.6,286047001.8,N
1585083595.5,286047002.5,N
